User: anonymous   Login
Location: Unspecified
(0.0000°N, 0.0000°E)
Time: 10:04:49
(UTC+00:00)
Language:

A-11 Canister half - Orbit

View from above orbital plane
View from above orbital plane
View from above satellite
View from above satellite

Ground track
Ground track

The orbit data is extracted from the following two-line orbital elements,

1 00053U 60009E   15027.57625329 -.00000085  00000-0  00000+0 0  6324
2 00053 047.2738 207.1712 0098672 027.5753 018.1832 12.17161183428886
Epoch (UTC): 27 January 2015 13:49:48
Eccentricity: 0.0098672
inclination: 47.2738°
perigee height: 1526 km
apogee height: 1683 km
right ascension of ascending node: 207.1712°
argument of perigee: 27.5753°
revolutions per day: 12.17161183
mean anomaly at epoch: 18.1832°
orbit number at epoch: 42888

The dashed part of the orbit path shows where the satellite is in the earth's shadow,  

DLR